{"data":{"norad_id":39190,"intl_designator":"2013-031C","name":"O3B FM2","alt_names":[],"object_type":"PAYLOAD","status":"ACTIVE","operator":null,"country":"O3B","launch_date":"2013-06-25","launch_site_code":"FRGUI","launch_vehicle":null,"mission":null,"orbit_class":"UNKNOWN","rcs_meters":36.0795,"size_class":null,"mass_kg":null,"dimensions":null,"purposes":["comms"],"wikipedia_slug":null,"has_3d_model":false,"image_url":null,"decayed_at":null,"tle_current":{"epoch":"2026-09-19T23:21:01.060416Z","epoch_age_seconds":59940,"freshness":"FRESH","line1":"1 39190U 13031C   26262.97292894 -.00000027  00000+0  00000+0 0  9996","line2":"2 39190   0.0353   1.2587 0002608 174.2752 184.4707  5.00116166241848","mean_motion":5.00116166,"eccentricity":0.0002608,"inclination_deg":0.0353,"raan_deg":1.2587,"arg_perigee_deg":174.2752,"mean_anomaly_deg":184.4707,"bstar":0,"rev_number":24184,"period_min":287.9331039261,"perigee_km":8062.1103960141,"apogee_km":8069.6443939226,"semimajor_km":14444.014394968,"source":"CELESTRAK","updated_at":"2026-09-20T09:00:35.643223Z"}}}